Wind_Speed
17 24 21 16 13 13 12 13 15 15 14 13 12 12 12 14 15 14 11 10 9 8 7 7 6 4 5 4 3 3 5 8 11
12 23 21 22 22 20 19 20 19 25 23 22 23 21 21 21 22 18 13 15 13 10 11 11 10 9 7 5 4 6 8 10 13
11 19 26 25 27 23 21 31 24 29 33 32 28 25 26 25 28 24 19 20 19 16 16 13 14 14 12 11 11 12 14 15 17
8 14 28 27 30 31 26 31 29 30 36 43 35 33 33 29 37 33 30 18 26 24 20 18 16 15 15 15 17 19 20 21 22
4 9 22 27 28 35 40 41 43 43 42 32 35 36 29 39 43 54 56 33 27 24 21 18 16 16 17 19 22 25 27 28 29
6 7 11 14 16 23 30 32 35 27 30 16 18 27 33 40 36 47 40 24 18 19 18 17 18 19 22 25 28 31 34 35 35
10 6 4 5 7 13 21 25 26 23 20 33 24 26 20 14 18 10 18 14 13 17 19 20 22 25 28 31 34 36 41 43 44
9 3 3 0 4 12 17 12 3 9 8 2 7 8 4 3 2 6 8 10 13 17 20 23 26 29 34 38 41 44 46 47 48
3 4 3 3 1 4 7 8 8 6 5 3 3 4 1 2 2 4 8 14 19 22 24 27 33 38 42 44 45 45 45 47 46
2 3 6 2 0 1 6 2 4 3 2 2 1 5 8 10 10 10 13 17 22 28 34 38 41 44 45 43 41 40 40 41 44
9 10 11 10 12 6 6 8 7 3 7 9 9 10 12 13 15 17 23 28 33 36 40 43 45 42 42 41 39 39 39 40 42
8 10 11 12 14 14 14 16 18 16 13 14 19 21 21 23 25 28 33 37 41 45 44 41 42 42 42 42 41 41 42 43 44
7 11 14 16 16 18 15 15 18 19 20 21 24 22 27 29 33 40 45 47 44 42 42 42 42 42 42 42 43 42 42 42 45
12 13 14 17 18 19 18 21 23 23 24 26 31 32 35 40 44 46 41 39 39 39 39 39 40 41 41 41 41 42 40 40 42
13 15 18 19 20 22 24 24 28 30 31 32 37 43 46 43 39 38 36 36 36 37 38 41 41 43 43 42 41 41 40 39 39
15 16 19 22 24 27 29 32 33 36 41 43 41 36 35 34 34 35 36 37 38 39 41 44 45 45 46 46 45 44 42 42 42
16 19 21 24 27 29 33 38 41 40 38 36 35 34 33 32 32 33 35 37 39 40 41 44 47 48 49 49 49 48 45 45 45
18 21 27 32 34 35 35 34 33 32 32 32 32 32 32 33 34 35 35 36 38 40 41 45 49 49 50 51 51 50 49 47 48
25 31 35 32 31 30 29 28 28 28 29 29 30 31 32 34 35 36 38 41 41 39 42 44 44 44 45 46 48 49 50 50 48
33 32 29 28 27 26 26 27 27 28 28 28 29 29 30 32 35 37 38 39 41 45 45 44 39 37 37 40 44 46 48 50 52
Wind_Direction
258 241 240 241 219 253 252 249 259 243 240 246 256 258 250 248 245 235 233 236 231 232 246 255 254 228 215 239 263 297 321 326 314
290 239 250 244 235 242 234 229 240 261 261 248 238 236 237 233 234 233 247 254 246 238 237 248 255 254 256 258 275 298 302 300 298
319 254 245 247 244 250 250 230 254 246 253 265 254 250 244 245 235 236 229 255 258 248 243 247 244 248 251 244 266 282 288 291 295
330 264 239 248 251 258 257 251 252 254 250 263 261 249 254 244 252 237 228 224 231 246 252 256 250 254 256 256 276 287 290 293 296
316 262 246 243 260 258 262 267 265 265 269 270 269 256 277 249 249 262 258 218 241 245 249 248 257 259 259 271 281 285 289 293 297
283 270 243 243 253 264 272 275 265 264 252 247 305 294 292 288 276 270 220 218 222 235 241 248 255 261 268 274 279 285 291 292 293
313 300 265 233 249 289 298 284 273 298 310 247 261 285 290 310 354 57 172 202 213 233 243 252 259 267 276 284 286 288 289 290 291
316 252 15 66 17 35 41 31 323 343 329 8 217 236 277 262 84 127 184 205 231 243 260 265 274 281 286 287 288 288 289 289 290
306 276 345 344 97 65 74 69 84 123 74 40 319 212 329 355 356 288 250 248 263 269 271 277 276 276 280 284 285 286 285 285 284
332 291 296 242 185 75 16 151 51 98 58 25 32 292 330 340 333 318 304 294 288 282 281 284 290 292 289 286 284 282 282 282 283
360 344 324 280 277 294 304 308 269 312 336 332 320 315 320 320 310 298 292 291 290 291 292 292 291 290 290 289 289 288 286 283 281
350 326 315 311 306 308 326 328 316 303 301 308 321 313 304 298 290 290 295 293 293 295 294 294 294 294 292 291 291 291 288 285 281
314 306 299 304 302 296 296 300 311 307 303 287 281 279 289 291 296 300 297 296 295 294 294 293 294 294 293 295 296 292 289 288 286
283 307 300 301 293 292 290 304 304 301 294 292 293 287 291 293 294 293 292 292 293 293 293 293 294 293 294 292 291 290 289 286 284
283 291 301 294 295 295 296 298 296 291 283 286 286 288 290 294 294 296 297 297 299 300 299 297 295 294 295 293 291 290 289 288 284
283 287 293 292 291 291 288 286 286 287 289 292 294 296 298 301 301 302 303 304 303 303 302 301 300 299 297 296 293 290 288 286 284
284 288 282 280 281 282 284 288 291 294 296 296 298 301 305 304 300 300 300 300 300 301 300 299 298 297 295 292 290 288 284 281 278
283 287 292 291 288 289 290 292 293 294 297 300 303 304 303 302 301 301 301 302 304 304 305 304 302 300 298 296 294 290 287 281 275
291 299 299 296 295 294 293 293 293 295 296 297 298 300 300 301 302 304 306 306 307 308 309 310 308 304 300 296 293 293 292 290 284
300 299 300 298 296 295 295 296 296 297 298 299 299 300 301 303 305 306 307 308 312 314 318 321 321 312 303 298 296 295 293 291 287
Height
3162 3167 3171 3172 3177 3177 3177 3181 3182 3180 3182 3183 3185 3186 3186 3189 3188 3187 3189 3190 3191 3192 3191 3191 3188 3187 3185 3184 3184 3185 3185 3183 3183
3161 3164 3167 3168 3170 3170 3171 3172 3175 3177 3178 3177 3176 3178 3180 3181 3181 3180 3186 3188 3189 3189 3189 3188 3187 3186 3185 3184 3183 3182 3182 3182 3180
3160 3160 3163 3164 3166 3167 3166 3164 3168 3170 3171 3172 3175 3175 3176 3178 3177 3180 3174 3184 3185 3185 3184 3180 3183 3183 3182 3181 3182 3182 3181 3179 3177
3160 3159 3161 3162 3164 3163 3162 3162 3163 3166 3165 3163 3167 3168 3170 3174 3176 3174 3167 3172 3179 3181 3181 3182 3181 3181 3180 3179 3179 3178 3177 3176 3174
3158 3157 3157 3158 3159 3158 3157 3158 3158 3158 3159 3158 3159 3162 3163 3166 3168 3167 3155 3165 3165 3176 3177 3175 3177 3177 3177 3174 3174 3173 3172 3170 3168
3157 3156 3155 3156 3155 3153 3151 3148 3149 3148 3149 3149 3151 3153 3153 3153 3153 3136 3154 3148 3169 3172 3172 3170 3173 3174 3173 3170 3167 3167 3166 3163 3162
3155 3153 3153 3153 3153 3152 3147 3143 3143 3145 3145 3138 3143 3150 3150 3147 3142 3138 3150 3158 3162 3165 3166 3167 3167 3167 3167 3164 3160 3158 3158 3154 3151
3153 3152 3151 3152 3151 3149 3144 3143 3143 3142 3139 3141 3147 3152 3148 3148 3145 3149 3154 3156 3161 3161 3162 3161 3160 3159 3157 3155 3152 3150 3148 3142 3139
3150 3150 3150 3151 3150 3150 3148 3146 3145 3147 3148 3147 3148 3149 3148 3147 3148 3150 3153 3155 3157 3157 3156 3155 3154 3152 3150 3146 3142 3139 3137 3131 3127
3147 3147 3147 3149 3149 3150 3150 3151 3151 3151 3151 3151 3151 3150 3147 3144 3144 3147 3148 3149 3150 3150 3149 3145 3142 3139 3136 3133 3131 3128 3124 3120 3115
3146 3146 3145 3145 3147 3149 3149 3148 3148 3147 3146 3145 3145 3146 3145 3143 3142 3143 3144 3144 3144 3141 3138 3135 3131 3128 3124 3120 3117 3115 3112 3109 3104
3144 3144 3145 3144 3143 3143 3143 3142 3141 3140 3140 3139 3139 3139 3140 3141 3141 3140 3138 3136 3133 3128 3124 3120 3117 3115 3111 3107 3105 3103 3099 3095 3091
3142 3143 3142 3141 3139 3138 3139 3140 3138 3137 3138 3137 3137 3135 3134 3132 3130 3128 3125 3122 3119 3115 3111 3109 3105 3101 3099 3094 3090 3090 3086 3083 3079
3139 3139 3139 3139 3137 3136 3134 3133 3133 3133 3134 3132 3130 3128 3127 3124 3121 3119 3117 3113 3108 3104 3101 3097 3094 3090 3086 3083 3080 3078 3074 3072 3067
3137 3137 3135 3134 3133 3132 3129 3128 3128 3127 3126 3123 3123 3122 3118 3112 3109 3107 3104 3101 3096 3091 3087 3085 3082 3077 3073 3070 3069 3065 3062 3057 3055
3134 3134 3132 3131 3129 3127 3127 3125 3122 3120 3117 3113 3112 3107 3104 3099 3098 3095 3090 3087 3084 3079 3074 3071 3066 3060 3060 3056 3054 3050 3049 3044 3039
3131 3131 3130 3128 3126 3122 3119 3116 3113 3109 3106 3105 3102 3097 3093 3091 3092 3088 3083 3080 3076 3071 3066 3061 3056 3051 3046 3042 3039 3035 3033 3027 3022
3125 3124 3122 3121 3119 3117 3113 3109 3105 3102 3099 3096 3092 3090 3088 3087 3084 3080 3076 3073 3067 3060 3055 3048 3041 3036 3028 3023 3018 3015 3009 3007 3004
3120 3118 3115 3112 3109 3107 3105 3103 3101 3098 3096 3093 3090 3087 3084 3080 3075 3070 3065 3059 3054 3051 3043 3037 3030 3022 3015 3009 3001 2994 2989 2986 2985
3113 3110 3107 3105 3102 3100 3098 3096 3093 3091 3089 3087 3084 3082 3078 3074 3068 3063 3056 3050 3043 3036 3031 3026 3020 3012 3004 2996 2988 2982 2976 2969 2964